UCA4330 KLCH-KIAH

Flight info

Callsign UCA4330
Flight time 0h 32m
Altitude 10000
Route DCT DAS DCT
Aircraft CRJ7/M-VGDW/C

Departure

Time 2026-04-25 04:11
Airport Lake Charles Regional Airport (KLCH)

Arrival

Time 2026-04-25 04:43
Airport George Bush Intercontinental Airport (KIAH)
Time Latitude Longitude Altitude Speed Heading
2026-04-25 03:44 30.12367 -93.22121 23 ft 0 kts 103°
2026-04-25 03:56 30.12367 -93.22120 23 ft 0 kts 103°
2026-04-25 03:59 30.12370 -93.22137 17 ft 4 kts 92°
2026-04-25 04:00 30.12365 -93.22163 23 ft 4 kts 37°
2026-04-25 04:00 30.12346 -93.22167 23 ft 2 kts 336°
2026-04-25 04:00 30.12344 -93.22167 23 ft 0 kts 335°
2026-04-25 04:05 30.12349 -93.22169 24 ft 2 kts 335°
2026-04-25 04:06 30.12380 -93.22186 23 ft 8 kts 335°
2026-04-25 04:06 30.12444 -93.22221 23 ft 13 kts 334°
2026-04-25 04:06 30.12531 -93.22267 24 ft 14 kts 335°
2026-04-25 04:06 30.12619 -93.22315 25 ft 14 kts 335°
2026-04-25 04:07 30.12709 -93.22364 26 ft 15 kts 335°
2026-04-25 04:07 30.12808 -93.22417 27 ft 17 kts 335°
2026-04-25 04:07 30.12919 -93.22477 27 ft 19 kts 335°
2026-04-25 04:07 30.13048 -93.22513 22 ft 17 kts 34°
2026-04-25 04:08 30.13121 -93.22402 21 ft 18 kts 53°
2026-04-25 04:08 30.13195 -93.22290 21 ft 18 kts 51°
2026-04-25 04:08 30.13279 -93.22168 19 ft 20 kts 51°
2026-04-25 04:08 30.13367 -93.22040 21 ft 20 kts 52°
2026-04-25 04:09 30.13455 -93.21909 21 ft 21 kts 52°
2026-04-25 04:09 30.13541 -93.21782 24 ft 20 kts 52°
2026-04-25 04:09 30.13628 -93.21654 24 ft 18 kts 50°
2026-04-25 04:09 30.13658 -93.21637 24 ft 0 kts 358°
2026-04-25 04:10 30.13660 -93.21637 26 ft 1 kts 353°
2026-04-25 04:10 30.13675 -93.21643 24 ft 8 kts 335°
2026-04-25 04:10 30.13717 -93.21689 26 ft 4 kts 277°
2026-04-25 04:10 30.13704 -93.21721 23 ft 0 kts 231°
2026-04-25 04:11 30.13457 -93.22087 18 ft 103 kts 231°
2026-04-25 04:11 30.12873 -93.22950 190 ft 153 kts 230°
2026-04-25 04:11 30.12251 -93.23945 1015 ft 151 kts 232°
2026-04-25 04:12 30.11694 -93.24934 1941 ft 144 kts 236°
2026-04-25 04:12 30.11085 -93.25955 2448 ft 169 kts 232°
2026-04-25 04:12 30.10309 -93.27136 2969 ft 201 kts 230°
2026-04-25 04:12 30.09393 -93.28494 3507 ft 226 kts 231°
2026-04-25 04:13 30.08368 -93.29986 4103 ft 248 kts 231°
2026-04-25 04:13 30.07243 -93.31592 4740 ft 267 kts 231°
2026-04-25 04:13 30.06018 -93.33308 5361 ft 286 kts 231°
2026-04-25 04:13 30.04718 -93.35109 5991 ft 289 kts 231°
2026-04-25 04:14 30.03463 -93.36819 6581 ft 269 kts 231°
2026-04-25 04:14 30.02285 -93.38406 7160 ft 251 kts 231°
2026-04-25 04:14 30.01177 -93.39875 7730 ft 234 kts 231°
2026-04-25 04:14 30.00134 -93.41233 8304 ft 218 kts 231°
2026-04-25 04:15 29.99153 -93.42485 8818 ft 205 kts 231°
2026-04-25 04:15 29.98207 -93.43679 9238 ft 197 kts 231°
2026-04-25 04:15 29.97289 -93.44821 9642 ft 198 kts 231°
2026-04-25 04:15 29.96297 -93.46062 9872 ft 229 kts 231°
2026-04-25 04:16 29.95143 -93.47525 9997 ft 264 kts 231°
2026-04-25 04:16 29.93834 -93.49200 10066 ft 299 kts 231°
2026-04-25 04:16 29.92367 -93.51097 10094 ft 334 kts 231°
2026-04-25 04:16 29.90754 -93.53196 10101 ft 361 kts 231°
2026-04-25 04:17 29.89064 -93.55401 10089 ft 369 kts 231°
2026-04-25 04:17 29.87383 -93.57594 10066 ft 361 kts 231°
2026-04-25 04:17 29.85740 -93.59734 10047 ft 353 kts 231°
2026-04-25 04:17 29.84126 -93.61833 10033 ft 347 kts 231°
2026-04-25 04:18 29.82734 -93.64051 10012 ft 339 kts 246°
2026-04-25 04:18 29.82180 -93.66652 10016 ft 335 kts 265°
2026-04-25 04:18 29.82069 -93.69330 10026 ft 334 kts 269°
2026-04-25 04:18 29.82037 -93.72005 10027 ft 334 kts 270°
2026-04-25 04:19 29.82044 -93.74677 10027 ft 334 kts 270°
2026-04-25 04:19 29.82069 -93.77352 10024 ft 334 kts 271°
2026-04-25 04:19 29.82242 -93.80016 10010 ft 334 kts 276°
2026-04-25 04:19 29.82516 -93.82669 10014 ft 334 kts 277°
2026-04-25 04:20 29.82800 -93.85331 10015 ft 334 kts 276°
2026-04-25 04:20 29.83084 -93.87989 10011 ft 334 kts 276°
2026-04-25 04:20 29.83363 -93.90609 10012 ft 334 kts 277°
2026-04-25 04:20 29.83647 -93.93271 10010 ft 335 kts 277°
2026-04-25 04:21 29.83933 -93.95930 10011 ft 335 kts 277°
2026-04-25 04:21 29.84220 -93.98602 10009 ft 335 kts 277°
2026-04-25 04:21 29.84507 -94.01266 10012 ft 335 kts 277°
2026-04-25 04:21 29.84792 -94.03932 10010 ft 335 kts 277°
2026-04-25 04:22 29.85079 -94.06602 10007 ft 336 kts 277°
2026-04-25 04:22 29.85368 -94.09272 10010 ft 336 kts 277°
2026-04-25 04:22 29.85655 -94.11944 10011 ft 336 kts 276°
2026-04-25 04:22 29.85943 -94.14613 10010 ft 336 kts 276°
2026-04-25 04:23 29.86231 -94.17285 10008 ft 336 kts 276°
2026-04-25 04:23 29.86521 -94.19966 10006 ft 336 kts 276°
2026-04-25 04:23 29.86811 -94.22641 9955 ft 338 kts 276°
2026-04-25 04:23 29.87103 -94.25337 9896 ft 340 kts 277°
2026-04-25 04:24 29.87399 -94.28048 9869 ft 340 kts 277°
2026-04-25 04:24 29.87693 -94.30751 9852 ft 340 kts 276°
2026-04-25 04:24 29.87990 -94.33461 9843 ft 340 kts 277°
2026-04-25 04:24 29.88287 -94.36165 9843 ft 340 kts 277°
2026-04-25 04:25 29.88584 -94.38868 9843 ft 340 kts 276°
2026-04-25 04:25 29.88879 -94.41566 9839 ft 339 kts 276°
2026-04-25 04:25 29.89173 -94.44232 9844 ft 339 kts 277°
2026-04-25 04:25 29.89470 -94.46926 9833 ft 339 kts 277°
2026-04-25 04:26 29.89768 -94.49628 9836 ft 339 kts 277°
2026-04-25 04:26 29.90069 -94.52312 9836 ft 339 kts 277°
2026-04-25 04:26 29.90370 -94.55011 9834 ft 339 kts 277°
2026-04-25 04:26 29.90669 -94.57701 9828 ft 339 kts 277°
2026-04-25 04:27 29.90970 -94.60392 9830 ft 339 kts 277°
2026-04-25 04:27 29.91274 -94.63081 9831 ft 338 kts 277°
2026-04-25 04:27 29.91576 -94.65774 9832 ft 338 kts 277°
2026-04-25 04:27 29.91879 -94.68465 9833 ft 339 kts 277°
2026-04-25 04:28 29.92186 -94.71156 9830 ft 339 kts 277°
2026-04-25 04:28 29.92491 -94.73846 9830 ft 339 kts 277°
2026-04-25 04:28 29.92798 -94.76541 9830 ft 339 kts 277°
2026-04-25 04:28 29.93108 -94.79236 9831 ft 339 kts 277°
2026-04-25 04:29 29.93417 -94.81929 9828 ft 339 kts 277°
2026-04-25 04:29 29.93728 -94.84618 9822 ft 339 kts 277°
2026-04-25 04:29 29.94042 -94.87311 9827 ft 339 kts 277°
2026-04-25 04:29 29.94355 -94.89997 9810 ft 339 kts 277°
2026-04-25 04:30 29.94677 -94.92729 9564 ft 346 kts 277°
2026-04-25 04:30 29.94999 -94.95440 9194 ft 347 kts 277°
2026-04-25 04:30 29.95331 -94.98241 8818 ft 350 kts 277°
2026-04-25 04:30 29.95661 -95.00995 8457 ft 352 kts 277°
2026-04-25 04:31 29.95999 -95.03773 7991 ft 343 kts 277°
2026-04-25 04:31 29.96321 -95.06416 7502 ft 323 kts 277°
2026-04-25 04:31 29.96629 -95.08927 6953 ft 310 kts 277°
2026-04-25 04:31 29.96933 -95.11350 6389 ft 301 kts 277°
2026-04-25 04:32 29.97231 -95.13703 5796 ft 293 kts 277°
2026-04-25 04:32 29.97529 -95.15997 5207 ft 286 kts 276°
2026-04-25 04:32 29.97727 -95.17522 4812 ft 283 kts 276°
2026-04-25 04:32 29.98014 -95.19712 4225 ft 276 kts 276°
2026-04-25 04:33 29.98299 -95.21874 3624 ft 269 kts 275°
2026-04-25 04:33 29.98585 -95.23959 3282 ft 255 kts 279°
2026-04-25 04:33 29.99395 -95.25727 3108 ft 253 kts 315°
2026-04-25 04:33 30.00949 -95.26593 3043 ft 251 kts 352°
2026-04-25 04:34 30.02666 -95.26658 3036 ft 243 kts 359°
2026-04-25 04:34 30.04387 -95.26589 3023 ft 252 kts 10°
2026-04-25 04:34 30.05958 -95.25658 3023 ft 266 kts 48°
2026-04-25 04:34 30.06844 -95.23769 3045 ft 271 kts 82°
2026-04-25 04:35 30.07058 -95.21682 3047 ft 255 kts 89°
2026-04-25 04:35 30.07184 -95.19684 3026 ft 244 kts 90°
2026-04-25 04:35 30.07286 -95.17769 3006 ft 235 kts 91°
2026-04-25 04:35 30.07368 -95.15918 2966 ft 229 kts 92°
2026-04-25 04:36 30.07447 -95.14062 2979 ft 235 kts 92°
2026-04-25 04:36 30.07516 -95.12159 3009 ft 239 kts 92°
2026-04-25 04:36 30.07574 -95.10224 3024 ft 244 kts 92°
2026-04-25 04:36 30.07416 -95.08291 3011 ft 240 kts 117°
2026-04-25 04:37 30.06373 -95.06940 3015 ft 221 kts 157°
2026-04-25 04:37 30.04911 -95.06630 3025 ft 214 kts 178°
2026-04-25 04:37 30.03435 -95.06567 3016 ft 205 kts 180°
2026-04-25 04:37 30.02110 -95.06574 3012 ft 181 kts 188°
2026-04-25 04:38 30.01126 -95.07291 2994 ft 165 kts 232°
2026-04-25 04:38 30.00507 -95.08348 3005 ft 151 kts 232°
2026-04-25 04:38 29.99873 -95.09349 3006 ft 163 kts 230°
2026-04-25 04:38 29.99253 -95.10521 3017 ft 183 kts 247°
2026-04-25 04:39 29.99006 -95.12026 3045 ft 196 kts 255°
2026-04-25 04:39 29.98768 -95.13616 3040 ft 205 kts 256°
2026-04-25 04:39 29.98561 -95.15270 3042 ft 212 kts 262°
2026-04-25 04:39 29.98594 -95.16989 3046 ft 208 kts 269°
2026-04-25 04:40 29.98689 -95.18490 3066 ft 178 kts 270°
2026-04-25 04:40 29.98832 -95.19888 3008 ft 174 kts 276°
2026-04-25 04:40 29.99091 -95.21177 2809 ft 155 kts 278°
2026-04-25 04:40 29.99379 -95.22308 2531 ft 140 kts 279°
2026-04-25 04:41 29.99566 -95.23366 1995 ft 131 kts 265°
2026-04-25 04:41 29.99568 -95.24405 1560 ft 133 kts 259°
2026-04-25 04:41 29.99515 -95.25463 1305 ft 133 kts 257°
2026-04-25 04:41 29.99435 -95.26554 1083 ft 140 kts 258°
2026-04-25 04:42 29.99358 -95.27669 925 ft 139 kts 259°
2026-04-25 04:42 29.99332 -95.28785 729 ft 139 kts 265°
2026-04-25 04:42 29.99338 -95.29897 617 ft 137 kts 265°
2026-04-25 04:42 29.99331 -95.30965 360 ft 132 kts 267°
2026-04-25 04:43 29.99340 -95.32060 217 ft 135 kts 266°
2026-04-25 04:43 29.99343 -95.33023 107 ft 102 kts 265°
2026-04-25 04:43 29.99335 -95.33815 104 ft 115 kts 268°
2026-04-25 04:43 29.99339 -95.34451 103 ft 31 kts 273°
2026-04-25 04:44 29.99320 -95.34684 105 ft 29 kts 252°
2026-04-25 04:44 29.99255 -95.34839 104 ft 4 kts 239°
2026-04-25 04:44 29.99250 -95.34848 105 ft 2 kts 239°
2026-04-25 04:44 29.99240 -95.34868 105 ft 4 kts 239°
2026-04-25 04:45 29.99223 -95.34901 105 ft 6 kts 239°
2026-04-25 04:45 29.99198 -95.34951 104 ft 8 kts 240°
2026-04-25 04:45 29.99160 -95.35009 105 ft 10 kts 220°
2026-04-25 04:45 29.99102 -95.35065 105 ft 12 kts 235°
2026-04-25 04:46 29.99088 -95.35161 105 ft 13 kts 268°
2026-04-25 04:46 29.99067 -95.35264 105 ft 14 kts 215°
2026-04-25 04:46 29.98969 -95.35277 105 ft 15 kts 181°
2026-04-25 04:46 29.98859 -95.35277 105 ft 17 kts 179°
2026-04-25 04:47 29.98740 -95.35276 105 ft 18 kts 179°
2026-04-25 04:47 29.98611 -95.35275 103 ft 19 kts 179°
2026-04-25 04:47 29.98475 -95.35258 104 ft 20 kts 152°
2026-04-25 04:47 29.98377 -95.35154 105 ft 20 kts 90°
2026-04-25 04:48 29.98380 -95.34986 105 ft 22 kts 90°
2026-04-25 04:48 29.98379 -95.34807 105 ft 23 kts 90°
2026-04-25 04:48 29.98379 -95.34683 105 ft 10 kts 82°
2026-04-25 04:48 29.98433 -95.34649 105 ft 10 kts
2026-04-25 04:49 29.98483 -95.34666 105 ft 5 kts 317°
2026-04-25 04:49 29.98496 -95.34681 105 ft 1 kts 314°
2026-04-25 04:49 29.98497 -95.34681 105 ft 0 kts 314°